| time (UTC) | temp F | wind direction | speed knots | gust knots | rain 1hr in | rain 24hr in | rain mn in | humidity % | barometer mb |
| 20260506195705 | 42 | 77 | 2.6 | 10.4 | 0.02 | 0.20 | 0.20 | 94 | 1011.0 |
| 20260506195201 | 42 | 50 | 1.7 | 10.4 | 0.02 | 0.20 | 0.20 | 94 | 1011.0 |
| 20260506194700 | 42 | 92 | 0.9 | 3.5 | 0.02 | 0.20 | 0.20 | 94 | 1011.1 |
| 20260506194200 | 42 | 78 | 0.9 | 6.1 | 0.02 | 0.20 | 0.20 | 94 | 1011.2 |
| 20260506193657 | 42 | 63 | 0.9 | 6.1 | 0.02 | 0.20 | 0.20 | 94 | 1011.0 |
| 20260506193415 | 42 | 99 | 0.9 | 2.6 | 0.02 | 0.20 | 0.20 | 94 | 1011.2 |
| 20260506192656 | 42 | 102 | 0.9 | 2.6 | 0.02 | 0.20 | 0.20 | 94 | 1011.3 |
| 20260506192205 | 42 | 103 | 0.9 | 2.6 | 0.02 | 0.20 | 0.20 | 94 | 1011.4 |
| 20260506191652 | 42 | 103 | 0.9 | 2.6 | 0.02 | 0.20 | 0.20 | 94 | 1011.5 |
| 20260506191151 | 42 | 90 | 0.9 | 2.6 | 0.03 | 0.20 | 0.20 | 94 | 1011.5 |
| 20260506190651 | 42 | 90 | 0.9 | 2.6 | 0.03 | 0.20 | 0.20 | 94 | 1011.5 |
| 20260506190147 | 42 | 92 | 0.9 | 5.2 | 0.03 | 0.20 | 0.20 | 94 | 1011.4 |
| 20260506185646 | 42 | 5 | 0.9 | 5.2 | 0.03 | 0.19 | 0.19 | 94 | 1011.5 |
| 20260506185055 | 42 | 76 | 0.9 | 6.1 | 0.04 | 0.19 | 0.19 | 94 | 1011.5 |
| 20260506184553 | 42 | 83 | 0.9 | 6.1 | 0.04 | 0.19 | 0.19 | 94 | 1011.4 |
| 20260506184311 | 43 | 92 | 0.9 | 5.2 | 0.05 | 0.18 | 0.18 | 95 | 1011.3 |
| 20260506183553 | 42 | 88 | 0.9 | 3.5 | 0.06 | 0.18 | 0.18 | 95 | 1011.2 |
| 20260506183053 | 43 | 84 | 0.9 | 3.5 | 0.06 | 0.18 | 0.18 | 94 | 1011.2 |
| 20260506182551 | 43 | 84 | 0.9 | 5.2 | 0.06 | 0.18 | 0.18 | 94 | 1011.3 |
| 20260506182051 | 43 | 84 | 0.9 | 5.2 | 0.07 | 0.17 | 0.17 | 94 | 1011.3 |
| 20260506181602 | 43 | 96 | 0.0 | 2.6 | 0.07 | 0.17 | 0.17 | 94 | 1011.4 |
| 20260506181049 | 43 | 96 | 0.0 | 1.7 | 0.07 | 0.17 | 0.17 | 94 | 1011.5 |
| 20260506181027 | 43 | 96 | 0.0 | 0.9 | 0.07 | 0.17 | 0.17 | 94 | 1011.5 |
| 20260506180104 | 43 | 96 | 0.0 | 1.7 | 0.07 | 0.16 | 0.17 | 94 | 1011.5 |
| 20260506175549 | 43 | 96 | 0.0 | 1.7 | 0.07 | 0.16 | 0.16 | 94 | 1011.5 |
| 20260506175049 | 43 | 96 | 0.0 | 0.0 | 0.07 | 0.15 | 0.15 | 93 | 1011.6 |
| 20260506174549 | 43 | 96 | 0.0 | 1.7 | 0.08 | 0.15 | 0.15 | 93 | 1011.6 |
| 20260506174530 | 43 | 96 | 0.0 | 1.7 | 0.07 | 0.13 | 0.13 | 93 | 1011.5 |
| 20260506173536 | 43 | 96 | 0.0 | 1.7 | 0.07 | 0.13 | 0.13 | 92 | 1011.5 |
| 20260506173039 | 43 | 96 | 0.0 | 2.6 | 0.06 | 0.12 | 0.12 | 92 | 1011.3 |
| 20260506172537 | 43 | 97 | 0.0 | 2.6 | 0.07 | 0.11 | 0.12 | 92 | 1011.3 |
| 20260506172035 | 43 | 95 | 0.0 | 2.6 | 0.06 | 0.10 | 0.10 | 92 | 1011.3 |
| 20260506171535 | 43 | 355 | 0.0 | 1.7 | 0.08 | 0.10 | 0.10 | 91 | 1011.3 |
| 20260506171033 | 43 | 355 | 0.0 | 1.7 | 0.08 | 0.09 | 0.09 | 91 | 1011.4 |
| 20260506170531 | 43 | 85 | 0.0 | 0.9 | 0.08 | 0.09 | 0.09 | 90 | 1011.4 |
| 20260506170031 | 44 | 85 | 0.0 | 2.6 | 0.07 | 0.09 | 0.09 | 90 | 1011.4 |
| 20260506165531 | 44 | 85 | 0.9 | 3.5 | 0.08 | 0.09 | 0.09 | 89 | 1011.5 |
| 20260506165033 | 44 | 85 | 0.9 | 3.5 | 0.07 | 0.08 | 0.08 | 88 | 1011.6 |
| 20260506164531 | 44 | 73 | 1.7 | 7.0 | 0.07 | 0.07 | 0.07 | 88 | 1011.6 |
| 20260506164031 | 44 | 69 | 2.6 | 7.0 | 0.06 | 0.06 | 0.07 | 86 | 1011.7 |
| 20260506163530 | 45 | 51 | 2.6 | 6.1 | 0.06 | 0.06 | 0.06 | 85 | 1011.8 |
| 20260506163257 | 45 | 56 | 3.5 | 7.8 | 0.05 | 0.05 | 0.06 | 84 | 1011.9 |
| 20260506162529 | 46 | 86 | 2.6 | 7.8 | 0.04 | 0.04 | 0.04 | 83 | 1011.9 |
| 20260506162307 | 46 | 88 | 2.6 | 7.0 | 0.03 | 0.03 | 0.04 | 81 | 1012.1 |
| 20260506161525 | 47 | 84 | 2.6 | 7.8 | 0.02 | 0.02 | 0.02 | 79 | 1012.1 |
| 20260506161038 | 47 | 123 | 2.6 | 7.8 | 0.02 | 0.02 | 0.02 | 78 | 1012.0 |
| 20260506160525 | 47 | 93 | 0.9 | 6.1 | 0.02 | 0.02 | 0.02 | 77 | 1012.0 |
| 20260506160039 | 47 | 65 | 0.9 | 5.2 | 0.02 | 0.02 | 0.02 | 77 | 1011.8 |
| 20260506155525 | 48 | 65 | 0.9 | 7.8 | 0.01 | 0.01 | 0.02 | 74 | 1011.9 |
| 20260506155025 | 48 | 78 | 2.6 | 7.8 | 0.01 | 0.01 | 0.01 | 73 | 1011.7 |
| 20260506155011 | 49 | 61 | 2.6 | 9.6 | 0.00 | 0.00 | 0.01 | 71 | 1011.5 |
| 20260506154021 | 49 | 57 | 1.7 | 9.6 | 0.00 | 0.00 | 0.00 | 69 | 1011.1 |
| 20260506153745 | 49 | 98 | 1.7 | 7.0 | 0.00 | 0.00 | 0.00 | 68 | 1011.1 |
| 20260506153020 | 50 | 88 | 2.6 | 7.0 | 0.00 | 0.00 | 0.00 | 66 | 1011.2 |
| 20260506152521 | 51 | 76 | 3.5 | 7.8 | 0.00 | 0.00 | 0.00 | 61 | 1011.4 |
| 20260506152022 | 51 | 81 | 4.3 | 11.3 | 0.00 | 0.00 | 0.00 | 63 | 1011.4 |
| 20260506151521 | 51 | 49 | 3.5 | 11.3 | 0.00 | 0.00 | 0.00 | 59 | 1011.3 |
| 20260506151021 | 51 | 94 | 4.3 | 14.8 | 0.00 | 0.00 | 0.00 | 60 | 1011.3 |
| 20260506150521 | 52 | 186 | 4.3 | 14.8 | 0.00 | 0.00 | 0.00 | 54 | 1011.2 |
| 20260506150021 | 53 | 59 | 2.6 | 11.3 | 0.00 | 0.00 | 0.00 | 51 | 1011.0 |
| 20260506145518 | 54 | 131 | 0.9 | 3.5 | 0.00 | 0.00 | 0.00 | 49 | 1010.9 |
| 20260506145014 | 54 | 92 | 0.9 | 4.3 | 0.00 | 0.00 | 0.00 | 46 | 1010.6 |
| 20260506144515 | 54 | 96 | 0.9 | 4.3 | 0.00 | 0.00 | 0.00 | 47 | 1010.5 |
| 20260506144016 | 54 | 77 | 0.9 | 7.0 | 0.00 | 0.00 | 0.00 | 46 | 1010.3 |
| 20260506143514 | 54 | 88 | 1.7 | 7.0 | 0.00 | 0.00 | 0.00 | 45 | 1010.2 |
| 20260506143239 | 54 | 89 | 1.7 | 5.2 | 0.00 | 0.00 | 0.00 | 45 | 1010.4 |
| 20260506142740 | 54 | 90 | 1.7 | 5.2 | 0.00 | 0.00 | 0.00 | 45 | 1010.4 |
| 20260506142016 | 55 | 74 | 1.7 | 4.3 | 0.00 | 0.00 | 0.00 | 46 | 1010.6 |
| 20260506141514 | 55 | 74 | 1.7 | 7.0 | 0.00 | 0.00 | 0.00 | 44 | 1010.7 |
| 20260506141015 | 55 | 79 | 0.9 | 7.0 | 0.00 | 0.00 | 0.00 | 44 | 1010.8 |
| 20260506140510 | 55 | 78 | 1.7 | 7.0 | 0.00 | 0.00 | 0.00 | 46 | 1010.7 |
| 20260506140010 | 55 | 73 | 1.7 | 7.8 | 0.00 | 0.00 | 0.00 | 43 | 1010.6 |
| 20260506135509 | 55 | 93 | 1.7 | 7.8 | 0.00 | 0.00 | 0.00 | 46 | 1010.8 |
| 20260506135009 | 55 | 76 | 1.7 | 6.1 | 0.00 | 0.00 | 0.00 | 43 | 1010.9 |
| 20260506134510 | 55 | 84 | 1.7 | 6.1 | 0.00 | 0.00 | 0.00 | 43 | 1010.9 |
| 20260506134006 | 55 | 98 | 1.7 | 6.1 | 0.00 | 0.00 | 0.00 | 44 | 1011.1 |
| 20260506133507 | 55 | 67 | 0.9 | 6.1 | 0.00 | 0.00 | 0.00 | 44 | 1011.1 |
| 20260506133006 | 55 | 78 | 0.9 | 6.1 | 0.00 | 0.00 | 0.00 | 43 | 1011.2 |
| 20260506132818 | 55 | 36 | 0.9 | 5.2 | 0.00 | 0.00 | 0.00 | 44 | 1011.0 |
| 20260506132711 | 55 | 61 | 1.7 | 5.2 | 0.00 | 0.00 | 0.00 | 41 | 1011.2 |
| 20260506131506 | 55 | 68 | 1.7 | 7.0 | 0.00 | 0.00 | 0.00 | 43 | 1011.0 |
| 20260506131017 | 56 | 88 | 2.6 | 7.0 | 0.00 | 0.00 | 0.00 | 44 | 1011.3 |
| 20260506130503 | 56 | 74 | 1.7 | 4.3 | 0.00 | 0.00 | 0.00 | 44 | 1011.6 |
| 20260506130003 | 56 | 92 | 1.7 | 5.2 | 0.00 | 0.00 | 0.00 | 44 | 1011.6 |
| 20260506125505 | 56 | 19 | 1.7 | 5.2 | 0.00 | 0.00 | 0.00 | 44 | 1011.8 |
| 20260506125002 | 56 | 49 | 0.9 | 4.3 | 0.00 | 0.00 | 0.00 | 43 | 1011.9 |
| 20260506124503 | 56 | 42 | 1.7 | 6.1 | 0.00 | 0.00 | 0.00 | 42 | 1011.9 |
| 20260506124002 | 56 | 52 | 2.6 | 8.7 | 0.00 | 0.00 | 0.00 | 44 | 1012.0 |
| 20260506123504 | 56 | 82 | 2.6 | 8.7 | 0.00 | 0.00 | 0.00 | 45 | 1012.2 |
| 20260506123002 | 56 | 42 | 1.7 | 7.0 | 0.00 | 0.00 | 0.00 | 46 | 1012.3 |
| 20260506122502 | 56 | 330 | 2.6 | 7.0 | 0.00 | 0.00 | 0.00 | 41 | 1012.4 |
| 20260506122004 | 57 | 340 | 1.7 | 7.0 | 0.00 | 0.00 | 0.00 | 40 | 1012.2 |
| 20260506121504 | 58 | 55 | 1.7 | 6.1 | 0.00 | 0.00 | 0.00 | 43 | 1012.3 |
| 20260506121002 | 58 | 59 | 1.7 | 7.0 | 0.00 | 0.00 | 0.00 | 45 | 1012.3 |
| 20260506120456 | 57 | 336 | 1.7 | 7.0 | 0.00 | 0.00 | 0.00 | 44 | 1012.4 |
| 20260506115956 | 58 | 111 | 2.6 | 8.7 | 0.00 | 0.00 | 0.00 | 42 | 1012.3 |
| 20260506115458 | 57 | 351 | 2.6 | 9.6 | 0.00 | 0.00 | 0.00 | 42 | 1012.3 |
| 20260506115217 | 57 | 61 | 2.6 | 9.6 | 0.00 | 0.00 | 0.00 | 44 | 1012.3 |
| 20260506114458 | 58 | 22 | 2.6 | 5.2 | 0.00 | 0.00 | 0.00 | 50 | 1012.2 |
| 20260506113954 | 58 | 80 | 2.6 | 8.7 | 0.00 | 0.00 | 0.00 | 47 | 1012.3 |
| 20260506113944 | 58 | 5 | 2.6 | 8.7 | 0.00 | 0.00 | 0.00 | 46 | 1012.1 |
| 20260506112952 | 57 | 58 | 1.7 | 7.0 | 0.00 | 0.00 | 0.00 | 43 | 1012.0 |
| 20260506112451 | 58 | 95 | 2.6 | 7.8 | 0.00 | 0.00 | 0.00 | 44 | 1012.2 |
| 20260506111949 | 57 | 65 | 2.6 | 8.7 | 0.00 | 0.00 | 0.00 | 41 | 1012.1 |
| 20260506111449 | 58 | 348 | 2.6 | 8.7 | 0.00 | 0.00 | 0.00 | 48 | 1012.0 |
| 20260506111210 | 57 | 69 | 2.6 | 7.0 | 0.00 | 0.00 | 0.00 | 47 | 1012.1 |
| 20260506110448 | 56 | 59 | 4.3 | 7.8 | 0.00 | 0.00 | 0.00 | 47 | 1012.1 |
| 20260506110441 | 56 | 86 | 4.3 | 11.3 | 0.00 | 0.00 | 0.00 | 45 | 1011.9 |
| 20260506105449 | 57 | 51 | 3.5 | 11.3 | 0.00 | 0.00 | 0.00 | 44 | 1012.0 |
| 20260506104948 | 57 | 57 | 3.5 | 8.7 | 0.00 | 0.00 | 0.00 | 43 | 1011.9 |
| 20260506104449 | 56 | 146 | 2.6 | 8.7 | 0.00 | 0.00 | 0.00 | 46 | 1012.1 |
| 20260506103948 | 57 | 54 | 1.7 | 7.8 | 0.00 | 0.00 | 0.00 | 51 | 1012.0 |
| 20260506103448 | 55 | 327 | 2.6 | 9.6 | 0.00 | 0.00 | 0.00 | 44 | 1012.1 |
| 20260506102950 | 56 | 102 | 4.3 | 9.6 | 0.00 | 0.00 | 0.00 | 46 | 1012.2 |
| 20260506102448 | 56 | 27 | 6.1 | 11.3 | 0.00 | 0.00 | 0.00 | 46 | 1012.0 |
| 20260506102211 | 56 | 331 | 4.3 | 11.3 | 0.00 | 0.00 | 0.00 | 47 | 1012.2 |
| 20260506101450 | 56 | 322 | 2.6 | 8.7 | 0.00 | 0.00 | 0.00 | 43 | 1012.3 |
| 20260506100947 | 56 | 55 | 6.1 | 12.2 | 0.00 | 0.00 | 0.00 | 44 | 1012.4 |
| 20260506100442 | 56 | 15 | 5.2 | 12.2 | 0.00 | 0.00 | 0.00 | 48 | 1012.4 |
| 20260506095942 | 56 | 333 | 3.5 | 8.7 | 0.00 | 0.00 | 0.00 | 48 | 1012.4 |
| 20260506095439 | 55 | 304 | 3.5 | 10.4 | 0.00 | 0.00 | 0.00 | 43 | 1012.4 |
| 20260506095419 | 55 | 77 | 4.3 | 10.4 | 0.00 | 0.00 | 0.00 | 43 | 1012.5 |
| 20260506094437 | 55 | 279 | 4.3 | 13.0 | 0.00 | 0.00 | 0.00 | 44 | 1012.5 |
| 20260506093936 | 54 | 82 | 4.3 | 13.0 | 0.00 | 0.00 | 0.00 | 44 | 1012.6 |
| 20260506093436 | 54 | 337 | 3.5 | 10.4 | 0.00 | 0.00 | 0.00 | 45 | 1012.6 |
| 20260506092936 | 55 | 19 | 3.5 | 10.4 | 0.00 | 0.00 | 0.00 | 46 | 1012.8 |
| 20260506092437 | 55 | 324 | 2.6 | 9.6 | 0.00 | 0.00 | 0.00 | 46 | 1012.8 |
| 20260506091932 | 55 | 330 | 2.6 | 9.6 | 0.00 | 0.00 | 0.00 | 44 | 1012.8 |
| 20260506091432 | 54 | 57 | 2.6 | 9.6 | 0.00 | 0.00 | 0.00 | 44 | 1013.0 |
| 20260506090931 | 54 | 23 | 4.3 | 10.4 | 0.00 | 0.00 | 0.00 | 48 | 1013.0 |
| 20260506090653 | 54 | 9 | 3.5 | 10.4 | 0.00 | 0.00 | 0.00 | 46 | 1013.0 |
| 20260506085931 | 53 | 342 | 2.6 | 8.7 | 0.00 | 0.00 | 0.00 | 48 | 1013.2 |
| 20260506085653 | 53 | 89 | 2.6 | 8.7 | 0.00 | 0.00 | 0.00 | 50 | 1013.0 |
| 20260506084931 | 53 | 321 | 2.6 | 7.8 | 0.00 | 0.00 | 0.00 | 47 | 1013.1 |
| 20260506084432 | 53 | 324 | 2.6 | 7.8 | 0.00 | 0.00 | 0.00 | 49 | 1013.0 |
| 20260506083930 | 53 | 323 | 2.6 | 8.7 | 0.00 | 0.00 | 0.00 | 49 | 1013.1 |
| 20260506083430 | 53 | 355 | 2.6 | 9.6 | 0.00 | 0.00 | 0.00 | 46 | 1013.2 |
| 20260506082942 | 53 | 57 | 1.7 | 9.6 | 0.00 | 0.00 | 0.00 | 48 | 1013.1 |
| 20260506082431 | 53 | 78 | 1.7 | 6.1 | 0.00 | 0.00 | 0.00 | 47 | 1013.1 |
| 20260506081929 | 53 | 81 | 2.6 | 7.0 | 0.00 | 0.00 | 0.00 | 45 | 1013.2 |
| 20260506081430 | 52 | 80 | 1.7 | 7.0 | 0.00 | 0.00 | 0.00 | 45 | 1013.2 |
| 20260506080930 | 52 | 80 | 2.6 | 7.8 | 0.00 | 0.00 | 0.00 | 52 | 1013.2 |
| 20260506080425 | 52 | 325 | 2.6 | 7.8 | 0.00 | 0.00 | 0.00 | 51 | 1013.4 |
| 20260506073417 | 51 | 19 | 2.6 | 8.7 | 0.00 | 0.00 | 0.00 | 54 | 1013.1 |
| 20260506072918 | 50 | 350 | 2.6 | 8.7 | 0.00 | 0.00 | 0.00 | 58 | 1013.2 |
| 20260506072859 | 51 | 326 | 1.7 | 4.3 | 0.00 | 0.00 | 0.00 | 56 | 1013.2 |
| 20260506071919 | 50 | 84 | 2.6 | 7.0 | 0.00 | 0.00 | 0.00 | 54 | 1013.2 |
| 20260506071644 | 49 | 350 | 2.6 | 7.0 | 0.00 | 0.00 | 0.00 | 56 | 1013.1 |
| 20260506070918 | 50 | 66 | 1.7 | 5.2 | 0.00 | 0.00 | 0.00 | 57 | 1013.2 |
| 20260506070419 | 50 | 72 | 1.7 | 5.2 | 0.00 | 0.00 | 0.00 | 54 | 1013.1 |
| 20260506062351 | 47 | 329 | 1.7 | 7.8 | 0.00 | 0.00 | 0.00 | 63 | 1013.0 |
| 20260506062332 | 48 | 327 | 1.7 | 3.5 | 0.00 | 0.00 | 0.00 | 63 | 1012.9 |
| 20260506061611 | 47 | 78 | 1.7 | 6.1 | 0.00 | 0.00 | 0.00 | 61 | 1012.9 |
| 20260506060904 | 48 | 67 | 1.7 | 6.1 | 0.00 | 0.00 | 0.00 | 64 | 1013.0 |
| 20260506060353 | 47 | 5 | 1.7 | 5.2 | 0.00 | 0.00 | 0.00 | 64 | 1013.1 |
| 20260506051341 | 45 | 96 | 0.9 | 3.5 | 0.00 | 0.00 | 0.00 | 73 | 1012.9 |
| 20260506050843 | 45 | 80 | 0.9 | 2.6 | 0.00 | 0.00 | 0.00 | 75 | 1012.8 |
| 20260506050340 | 44 | 75 | 0.0 | 2.6 | 0.00 | 0.00 | 0.00 | 77 | 1012.8 |
| 20260506044840 | 43 | 312 | 0.0 | 0.9 | 0.00 | 0.00 | 0.00 | 83 | 1012.6 |
| 20260506044337 | 42 | 313 | 0.0 | 0.9 | 0.00 | 0.00 | 0.00 | 86 | 1012.6 |
| 20260506043838 | 41 | 313 | 0.0 | 0.9 | 0.00 | 0.00 | 0.00 | 89 | 1012.7 |
| 20260506043337 | 40 | 312 | 0.0 | 1.7 | 0.00 | 0.00 | 0.00 | 91 | 1012.7 |
| 20260506042839 | 40 | 312 | 0.0 | 1.7 | 0.00 | 0.00 | 0.00 | 92 | 1012.7 |
| 20260506042337 | 39 | 313 | 0.0 | 1.7 | 0.00 | 0.00 | 0.00 | 93 | 1012.7 |
| 20260506041835 | 39 | 313 | 0.0 | 1.7 | 0.00 | 0.00 | 0.00 | 94 | 1012.6 |
| 20260506041334 | 38 | 312 | 0.0 | 1.7 | 0.00 | 0.00 | 0.00 | 95 | 1012.5 |
| 20260506040837 | 37 | 313 | 0.0 | 0.9 | 0.00 | 0.00 | 0.00 | 95 | 1012.6 |
| 20260506040333 | 36 | 313 | 0.0 | 0.9 | 0.00 | 0.00 | 0.00 | 96 | 1012.5 |
| 20260506035832 | 35 | 312 | 0.0 | 0.0 | 0.00 | 0.00 | 0.00 | 95 | 1012.6 |
| 20260506035333 | 35 | 312 | 0.0 | 0.0 | 0.00 | 0.00 | 0.00 | 95 | 1012.7 |
| 20260506035049 | 34 | 312 | 0.0 | 0.0 | 0.00 | 0.00 | 0.00 | 95 | 1012.5 |
| 20260506034554 | 34 | 312 | 0.0 | 0.0 | 0.00 | 0.00 | 0.00 | 95 | 1012.4 |
| 20260506034051 | 33 | 312 | 0.0 | 0.0 | 0.00 | 0.00 | 0.00 | 94 | 1012.4 |
| 20260506033321 | 34 | 312 | 0.0 | 0.0 | 0.00 | 0.00 | 0.00 | 95 | 1012.2 |
| 20260506032815 | 33 | 312 | 0.0 | 0.0 | 0.00 | 0.00 | 0.00 | 95 | 1012.1 |
| 20260506032310 | 33 | 312 | 0.0 | 0.0 | 0.00 | 0.00 | 0.00 | 95 | 1012.1 |
| 20260506031807 | 33 | 313 | 0.0 | 0.0 | 0.00 | 0.00 | 0.00 | 95 | 1012.1 |
| 20260506031308 | 31 | 313 | 0.0 | 0.0 | 0.00 | 0.00 | 0.00 | 94 | 1012.0 |
| 20260506030820 | 32 | 312 | 0.0 | 0.0 | 0.00 | 0.00 | 0.00 | 94 | 1012.0 |
| 20260506030309 | 32 | 313 | 0.0 | 0.0 | 0.00 | 0.00 | 0.00 | 94 | 1011.9 |
| 20260506025808 | 32 | 313 | 0.0 | 0.0 | 0.00 | 0.00 | 0.00 | 94 | 1012.0 |
| 20260506025532 | 31 | 312 | 0.0 | 0.0 | 0.00 | 0.00 | 0.00 | 94 | 1011.8 |
| 20260506024806 | 31 | 312 | 0.0 | 0.0 | 0.00 | 0.00 | 0.00 | 93 | 1011.8 |
| 20260506024303 | 31 | 312 | 0.0 | 0.0 | 0.00 | 0.00 | 0.00 | 93 | 1011.8 |
| 20260506023802 | 32 | 313 | 0.0 | 0.0 | 0.00 | 0.00 | 0.00 | 94 | 1011.6 |
| 20260506023259 | 31 | 312 | 0.0 | 0.0 | 0.00 | 0.00 | 0.00 | 94 | 1011.8 |
| 20260506023021 | 31 | 313 | 0.0 | 0.0 | 0.00 | 0.00 | 0.00 | 93 | 1011.7 |
| 20260506022519 | 32 | 313 | 0.0 | 0.0 | 0.00 | 0.00 | 0.00 | 93 | 1011.6 |
| 20260506021755 | 32 | 312 | 0.0 | 0.0 | 0.00 | 0.00 | 0.00 | 93 | 1011.6 |
| 20260506021739 | 33 | 313 | 0.0 | 0.0 | 0.00 | 0.00 | 0.00 | 93 | 1011.4 |
| 20260506020753 | 33 | 312 | 0.0 | 0.0 | 0.00 | 0.00 | 0.00 | 93 | 1011.5 |
| 20260506020253 | 33 | 313 | 0.0 | 0.9 | 0.00 | 0.00 | 0.00 | 93 | 1011.4 |
| 20260506015751 | 33 | 313 | 0.0 | 0.9 | 0.00 | 0.00 | 0.00 | 93 | 1011.4 |
| 20260506015511 | 33 | 313 | 0.0 | 0.0 | 0.00 | 0.00 | 0.00 | 92 | 1011.3 |
| 20260506014748 | 34 | 312 | 0.0 | 0.0 | 0.00 | 0.00 | 0.00 | 92 | 1011.4 |
| 20260506014249 | 33 | 312 | 0.0 | 0.0 | 0.00 | 0.00 | 0.00 | 92 | 1011.2 |
| 20260506013751 | 34 | 312 | 0.0 | 0.0 | 0.00 | 0.00 | 0.00 | 92 | 1011.4 |
| 20260506013249 | 33 | 312 | 0.0 | 0.0 | 0.00 | 0.00 | 0.00 | 92 | 1011.3 |
| 20260506012749 | 33 | 313 | 0.0 | 0.0 | 0.00 | 0.00 | 0.00 | 91 | 1011.5 |
| 20260506012248 | 34 | 313 | 0.0 | 0.0 | 0.00 | 0.00 | 0.00 | 91 | 1011.3 |
| 20260506012012 | 34 | 312 | 0.0 | 0.0 | 0.00 | 0.00 | 0.00 | 91 | 1011.4 |
| 20260506011247 | 35 | 313 | 0.0 | 0.0 | 0.00 | 0.00 | 0.00 | 90 | 1011.1 |
| 20260506011010 | 35 | 312 | 0.0 | 0.0 | 0.00 | 0.00 | 0.00 | 90 | 1011.1 |
| 20260506010512 | 35 | 313 | 0.0 | 0.0 | 0.00 | 0.00 | 0.00 | 90 | 1011.0 |
| 20260506005747 | 35 | 312 | 0.0 | 0.0 | 0.00 | 0.00 | 0.00 | 90 | 1011.0 |
| 20260506005249 | 35 | 312 | 0.0 | 0.0 | 0.00 | 0.00 | 0.00 | 90 | 1010.9 |
| 20260506004747 | 34 | 312 | 0.0 | 0.0 | 0.00 | 0.00 | 0.00 | 90 | 1010.9 |
| 20260506004513 | 33 | 313 | 0.0 | 0.0 | 0.00 | 0.00 | 0.00 | 89 | 1010.9 |
| 20260506003749 | 34 | 313 | 0.0 | 0.0 | 0.00 | 0.00 | 0.00 | 87 | 1010.8 |
| 20260506003246 | 36 | 312 | 0.0 | 0.0 | 0.00 | 0.00 | 0.00 | 87 | 1010.7 |
| 20260506002744 | 37 | 313 | 0.0 | 0.0 | 0.00 | 0.00 | 0.00 | 88 | 1010.6 |
| 20260506002242 | 37 | 312 | 0.0 | 0.0 | 0.00 | 0.00 | 0.00 | 89 | 1010.6 |
| 20260506002230 | 36 | 312 | 0.0 | 0.0 | 0.00 | 0.00 | 0.00 | 87 | 1010.7 |
| 20260506001241 | 36 | 312 | 0.0 | 0.0 | 0.00 | 0.00 | 0.00 | 87 | 1010.7 |
| 20260506000739 | 36 | 313 | 0.0 | 0.0 | 0.00 | 0.00 | 0.00 | 85 | 1010.7 |
| 20260506000240 | 37 | 313 | 0.0 | 0.0 | 0.00 | 0.00 | 0.00 | 85 | 1010.5 |
| 20260505235740 | 38 | 312 | 0.0 | 0.0 | 0.00 | 0.00 | 0.00 | 84 | 1010.5 |
| 20260505235232 | 38 | 312 | 0.0 | 0.0 | 0.00 | 0.00 | 0.00 | 84 | 1010.4 |
| 20260505234733 | 38 | 312 | 0.0 | 0.0 | 0.00 | 0.00 | 0.00 | 84 | 1010.6 |
| 20260505234230 | 38 | 313 | 0.0 | 0.0 | 0.00 | 0.00 | 0.00 | 83 | 1010.4 |
| 20260505233731 | 38 | 313 | 0.9 | 1.7 | 0.00 | 0.00 | 0.00 | 82 | 1010.5 |
| 20260505233226 | 38 | 313 | 0.9 | 1.7 | 0.00 | 0.00 | 0.00 | 82 | 1010.4 |
| 20260505232727 | 39 | 313 | 0.9 | 1.7 | 0.00 | 0.00 | 0.00 | 82 | 1010.5 |
| 20260505232228 | 39 | 312 | 0.9 | 2.6 | 0.00 | 0.00 | 0.00 | 80 | 1010.4 |
| 20260505231728 | 39 | 312 | 0.9 | 2.6 | 0.00 | 0.00 | 0.00 | 81 | 1010.4 |
| 20260505231227 | 39 | 312 | 1.7 | 2.6 | 0.00 | 0.00 | 0.00 | 80 | 1010.4 |
| 20260505230727 | 39 | 312 | 1.7 | 2.6 | 0.00 | 0.00 | 0.00 | 80 | 1010.4 |
| 20260505230236 | 39 | 312 | 1.7 | 2.6 | 0.00 | 0.00 | 0.00 | 79 | 1010.5 |
| 20260505225723 | 40 | 312 | 2.6 | 3.5 | 0.00 | 0.00 | 0.00 | 79 | 1010.5 |
| 20260505225224 | 40 | 312 | 2.6 | 3.5 | 0.00 | 0.00 | 0.00 | 78 | 1010.5 |
| 20260505224723 | 40 | 312 | 1.7 | 3.5 | 0.00 | 0.00 | 0.00 | 78 | 1010.4 |
| 20260505224223 | 40 | 311 | 1.7 | 2.6 | 0.00 | 0.00 | 0.00 | 77 | 1010.3 |
| 20260505223722 | 40 | 311 | 1.7 | 2.6 | 0.00 | 0.00 | 0.00 | 77 | 1010.5 |
| 20260505223222 | 40 | 311 | 1.7 | 2.6 | 0.00 | 0.00 | 0.00 | 76 | 1010.4 |
| 20260505222720 | 40 | 311 | 1.7 | 3.5 | 0.00 | 0.00 | 0.00 | 76 | 1010.4 |
| 20260505222221 | 40 | 313 | 1.7 | 3.5 | 0.00 | 0.00 | 0.00 | 76 | 1010.2 |
| 20260505221720 | 41 | 310 | 2.6 | 7.0 | 0.00 | 0.00 | 0.00 | 76 | 1010.3 |
| 20260505221221 | 41 | 321 | 3.5 | 7.0 | 0.00 | 0.00 | 0.00 | 76 | 1010.2 |
| 20260505220718 | 41 | 325 | 2.6 | 6.1 | 0.00 | 0.00 | 0.00 | 76 | 1010.3 |
| 20260505220219 | 41 | 319 | 3.5 | 6.1 | 0.00 | 0.00 | 0.00 | 76 | 1010.3 |
| 20260505215721 | 42 | 296 | 2.6 | 4.3 | 0.00 | 0.00 | 0.00 | 76 | 1010.2 |
| 20260505215220 | 42 | 289 | 2.6 | 4.3 | 0.00 | 0.00 | 0.00 | 76 | 1010.3 |
| 20260505214719 | 42 | 302 | 2.6 | 4.3 | 0.00 | 0.00 | 0.00 | 76 | 1010.4 |
| 20260505214220 | 42 | 298 | 2.6 | 4.3 | 0.00 | 0.00 | 0.00 | 76 | 1010.3 |
| 20260505213732 | 42 | 300 | 1.7 | 4.3 | 0.00 | 0.00 | 0.00 | 75 | 1010.4 |
| 20260505213218 | 42 | 300 | 1.7 | 3.5 | 0.00 | 0.00 | 0.00 | 74 | 1010.2 |
| 20260505212719 | 42 | 300 | 1.7 | 3.5 | 0.00 | 0.00 | 0.00 | 73 | 1010.0 |
| 20260505212217 | 42 | 300 | 1.7 | 3.5 | 0.00 | 0.00 | 0.00 | 73 | 1010.1 |
| 20260505211718 | 42 | 300 | 0.9 | 2.6 | 0.00 | 0.00 | 0.00 | 72 | 1010.1 |
| 20260505211216 | 42 | 300 | 0.9 | 2.6 | 0.00 | 0.00 | 0.00 | 71 | 1010.1 |
| 20260505210716 | 43 | 300 | 0.0 | 2.6 | 0.00 | 0.00 | 0.00 | 72 | 1009.9 |
| 20260505210216 | 42 | 300 | 0.0 | 0.0 | 0.00 | 0.00 | 0.00 | 72 | 1010.0 |
| 20260505205940 | 42 | 300 | 0.0 | 0.0 | 0.00 | 0.00 | 0.00 | 71 | 1009.9 |
| 20260505205213 | 42 | 300 | 0.0 | 0.0 | 0.00 | 0.00 | 0.00 | 70 | 1009.8 |
| 20260505204712 | 42 | 300 | 0.0 | 1.7 | 0.00 | 0.00 | 0.00 | 70 | 1009.8 |
| 20260505204213 | 42 | 300 | 0.0 | 1.7 | 0.00 | 0.00 | 0.00 | 71 | 1009.8 |
| 20260505203714 | 42 | 300 | 0.9 | 1.7 | 0.00 | 0.00 | 0.00 | 70 | 1009.6 |
| 20260505203212 | 42 | 300 | 0.9 | 1.7 | 0.00 | 0.00 | 0.00 | 69 | 1009.6 |
| 20260505202713 | 43 | 300 | 1.7 | 2.6 | 0.00 | 0.00 | 0.00 | 68 | 1009.6 |
| 20260505202213 | 43 | 300 | 1.7 | 3.5 | 0.00 | 0.00 | 0.00 | 68 | 1009.5 |
| 20260505201713 | 43 | 300 | 2.6 | 3.5 | 0.00 | 0.00 | 0.00 | 67 | 1009.3 |
| 20260505201211 | 43 | 300 | 2.6 | 3.5 | 0.00 | 0.00 | 0.00 | 67 | 1009.3 |
| 20260505200711 | 44 | 307 | 1.7 | 2.6 | 0.00 | 0.00 | 0.00 | 66 | 1009.1 |
| 20260505200212 | 44 | 307 | 1.7 | 2.6 | 0.00 | 0.00 | 0.00 | 66 | 1009.1 |